PIESAT-2 12

Last updated on Thu Jan 16 2025 00:02:04 GMT+0000 (Coordinated Universal Time)

1 62336U 24241D 25015.55524773 .00015740 00000+0 85899-3 0 9992 2 62336 97.4927 325.2394 0004958 142.3022 217.8558 15.14420510 4506
UTC large
Height (km)
Speed (km/s)
/
Latitude / Longitude
Inclination (degrees)
Orbital Period (minutes)
Azimuth
Elevation
Range (km)
Doppler Factor

Next 0 passes for location: London (51.5072 / 0.1276)

Sorry there are no passes over London.